Theta_e
326 328 329 326 326 326 326 326 325 325 325 325 324 324 323 322 321 322 322 322 323 323 323 320 318 315 313 311 310 310 309 308 306 305 305 304 303 301 299 299 297 296 295 295
327 329 327 327 327 327 327 327 327 325 324 325 325 325 324 324 324 321 321 321 323 323 322 319 316 314 312 311 310 310 309 307 307 307 306 305 302 300 298 298 296 294 294 293
329 328 327 327 327 328 328 327 328 327 325 325 326 327 326 325 325 324 321 321 322 322 321 318 316 313 312 311 310 309 308 307 306 304 303 302 301 299 298 297 296 294 293 292
327 326 327 327 327 326 330 327 326 325 325 327 324 327 327 326 325 324 324 322 322 322 320 316 315 313 312 311 310 309 307 304 303 302 302 301 302 301 298 296 295 294 292 291
327 326 326 327 327 327 327 325 325 325 325 327 326 327 326 325 326 325 324 324 321 321 319 316 314 312 312 311 310 308 305 303 302 301 302 301 300 298 296 295 295 294 293 292
326 324 324 325 324 324 324 325 326 327 326 329 327 326 327 325 325 325 324 322 321 320 318 316 314 312 312 311 309 307 305 302 300 301 301 300 298 297 296 295 294 294 293 292
324 325 324 324 325 323 323 325 330 333 331 332 326 325 326 324 322 323 323 320 320 320 319 316 314 312 312 311 309 306 304 301 299 298 299 298 297 297 296 295 294 294 293 291
328 329 325 324 325 324 323 324 331 333 330 329 324 326 325 324 321 321 320 321 319 319 319 317 314 313 312 311 308 306 303 300 298 298 297 296 295 294 294 293 293 292 292 291
327 326 323 322 324 324 324 325 324 328 328 330 326 325 325 325 321 321 319 319 320 319 319 317 315 313 312 310 308 306 302 299 298 297 295 294 294 293 292 292 292 291 290 290
320 324 322 322 320 320 324 323 328 327 334 334 326 325 328 326 325 322 320 319 319 318 318 317 314 312 312 309 308 305 301 299 297 295 294 293 293 292 292 292 291 291 290 290
317 319 320 318 318 319 319 321 322 324 327 334 330 328 324 325 321 321 324 321 320 319 317 317 314 312 311 308 306 303 300 297 296 295 294 293 292 291 291 291 290 290 289 289
316 318 320 319 317 317 318 319 320 324 327 326 327 326 322 322 321 319 319 323 322 319 318 316 314 312 307 305 304 301 301 296 295 295 293 292 291 290 290 290 289 289 288 288
315 318 319 317 316 316 318 317 319 319 320 325 327 326 319 319 317 317 317 321 319 319 317 315 313 311 305 303 303 301 298 295 295 294 293 292 291 290 289 289 289 288 287 287
310 313 313 315 314 312 316 314 313 315 320 320 321 321 317 317 317 316 317 317 318 316 315 315 312 306 303 302 300 298 295 294 294 293 293 292 291 289 288 288 287 286 286 285
311 313 311 310 310 310 312 312 311 310 312 315 316 314 313 313 314 314 314 317 317 316 315 313 311 306 303 300 299 297 295 294 293 292 291 290 289 287 287 285 284 283 282 282
310 313 312 313 309 309 309 309 308 308 309 309 310 312 312 312 312 313 313 313 316 316 314 312 311 309 304 300 298 297 295 294 293 292 290 288 286 285 284 282 282 282 281 281
310 310 312 313 310 309 312 311 310 310 309 310 310 310 311 311 312 312 312 313 314 316 314 313 310 309 304 300 298 297 296 294 293 292 290 288 286 285 284 284 284 283 282 283
310 310 311 312 310 312 308 306 306 307 307 307 308 308 310 311 311 311 312 313 313 314 314 313 309 307 303 300 298 298 296 295 294 293 291 289 288 286 286 286 285 285 285 284
308 310 310 311 311 308 308 307 306 308 309 308 310 311 310 310 311 313 314 314 313 314 314 312 308 306 303 302 299 298 297 296 295 293 292 290 289 288 288 287 287 286 286 285
308 310 311 311 309 308 308 306 308 310 312 311 310 310 310 309 312 314 312 311 312 313 310 308 306 305 304 303 300 299 297 296 295 294 292 291 290 289 289 288 287 287 285 285
311 310 311 312 313 311 307 309 309 309 313 311 310 308 309 310 311 310 310 310 311 311 310 308 307 305 304 303 300 299 297 296 295 294 293 292 291 290 289 288 288 286 285 284
306 309 312 311 310 309 310 310 312 310 309 309 309 308 308 308 309 309 309 311 311 308 308 307 306 305 303 301 299 299 297 296 295 293 293 292 291 290 289 288 287 286 284 283
308 308 311 309 309 310 308 308 308 306 307 308 309 308 307 308 308 309 310 309 310 308 306 305 305 304 302 301 299 299 298 295 294 293 293 292 291 290 288 288 287 285 283 282
304 303 305 308 307 308 308 307 308 307 307 307 307 307 306 307 308 308 309 309 308 306 305 305 304 303 302 300 300 299 297 295 295 293 292 291 290 289 288 287 287 286 284 283
303 302 304 308 307 307 308 307 306 305 306 306 306 306 305 306 307 308 310 309 308 307 306 305 304 303 302 301 300 299 297 296 294 293 292 291 290 288 288 286 286 285 285 284
301 303 308 309 307 307 306 306 306 304 303 306 306 306 307 306 308 304 307 306 307 306 305 305 304 303 302 301 301 300 297 296 295 293 292 291 289 288 288 285 283 284 284 284
Wind_Speed
17 16 16 20 20 22 19 21 22 19 16 12 14 16 16 14 16 16 15 14 17 16 15 23 24 25 24 29 25 24 24 22 21 20 19 17 15 12 11 8 9 8 9 11
18 24 23 23 22 25 22 22 20 19 18 17 19 20 18 16 15 19 19 18 18 18 17 17 24 25 25 27 25 23 21 21 20 18 15 16 15 12 12 9 7 9 9 11
25 24 22 25 24 24 23 23 19 20 20 20 19 26 18 14 17 19 22 20 19 22 21 19 19 22 23 23 22 21 20 19 16 18 16 16 15 12 12 11 8 9 10 11
22 26 27 26 25 16 23 18 20 20 18 15 16 20 20 13 20 25 26 21 19 23 21 21 19 22 21 21 21 20 20 18 15 18 17 17 15 15 12 9 9 7 9 10
25 11 15 23 26 21 25 14 16 19 17 16 23 9 29 11 17 16 16 20 20 22 23 23 20 25 24 24 23 21 21 17 16 11 15 13 13 15 12 10 9 7 8 9
27 21 21 16 13 13 16 18 15 13 12 11 28 12 22 12 17 12 6 19 14 19 20 22 28 29 27 26 25 22 21 17 14 13 15 14 16 16 13 10 11 9 7 7
21 27 26 21 16 14 14 11 5 6 10 15 14 12 21 5 3 7 12 13 13 17 19 21 21 21 25 27 26 23 21 18 16 15 15 15 14 12 14 11 11 9 8 7
14 16 24 21 25 16 17 15 9 10 13 15 21 22 12 5 7 6 7 12 13 15 16 21 22 24 26 28 28 24 23 20 18 17 17 16 15 13 12 12 12 10 9 8
10 23 14 8 5 14 17 15 17 19 20 12 12 13 14 11 8 10 5 4 8 16 15 19 20 26 27 29 29 27 25 22 20 19 19 17 14 14 14 12 12 11 9 8
3 6 10 1 8 11 14 11 2 2 3 6 12 15 7 6 13 13 6 2 2 8 14 15 17 24 25 33 31 26 25 23 21 21 19 18 16 15 14 13 13 12 9 9
7 5 9 10 8 13 9 9 12 8 4 3 3 6 4 9 5 4 8 8 7 9 9 13 15 25 24 32 30 28 23 25 23 22 21 21 19 17 15 15 14 12 10 10
8 1 9 16 18 18 15 9 16 7 5 8 7 13 9 12 11 1 3 5 5 5 9 14 15 22 27 30 30 31 25 27 25 23 23 22 21 19 18 16 14 12 11 10
6 1 5 9 16 15 11 9 8 12 6 8 9 9 8 5 2 6 9 1 3 3 4 11 16 15 23 26 26 29 28 30 24 24 23 22 21 20 20 17 15 14 13 11
6 4 6 8 14 10 8 12 13 9 4 7 10 12 17 17 14 12 5 8 7 5 8 4 13 14 23 26 28 23 27 29 24 27 26 25 22 24 21 20 17 16 14 12
7 8 13 17 20 20 21 21 17 18 17 13 20 22 21 21 17 14 16 7 10 12 14 13 14 15 21 24 24 26 24 24 23 24 25 26 25 22 20 17 17 15 14 12
14 9 10 15 20 21 21 21 26 26 23 24 23 23 20 23 22 17 17 17 15 15 15 16 16 16 19 26 27 28 24 25 24 24 22 21 21 22 19 18 16 15 14 14
11 9 9 18 19 20 14 19 22 24 23 22 21 21 19 20 21 20 17 17 15 14 16 19 20 20 27 32 33 29 27 27 26 25 24 23 22 21 20 18 18 16 14 14
14 13 9 10 13 14 13 19 22 23 22 22 22 23 16 17 15 19 19 14 16 16 18 22 19 23 28 31 32 31 33 31 27 26 26 25 24 23 22 21 19 17 15 15
18 15 12 12 13 17 23 22 19 16 16 15 15 16 16 16 14 19 23 11 5 2 4 18 30 29 30 32 35 34 33 31 29 27 27 27 25 24 24 21 20 19 17 15
21 20 13 12 12 13 19 18 9 12 13 10 15 11 12 13 6 6 12 13 10 8 15 18 22 24 28 30 34 32 31 30 29 28 29 28 26 25 24 22 21 18 17 16
1 4 12 10 8 7 14 13 16 7 5 10 6 8 9 8 9 8 9 9 9 6 15 25 30 28 29 31 31 28 28 28 27 27 26 27 26 25 24 22 20 18 19 15
15 5 5 6 6 10 13 4 5 4 7 10 11 5 9 11 10 13 7 6 12 15 15 22 20 22 28 33 30 25 26 28 27 27 26 26 24 22 25 23 21 18 19 19
5 5 6 6 4 8 5 10 8 5 5 6 7 7 8 12 12 13 4 6 2 14 14 20 19 22 26 28 29 27 28 30 29 29 28 26 25 23 24 22 21 20 19 16
2 5 4 13 8 6 12 10 13 3 3 5 3 5 8 10 13 16 4 7 4 11 12 18 20 19 20 24 25 25 28 29 30 29 27 26 26 24 23 22 21 19 19 18
9 7 6 12 5 4 4 2 4 2 3 3 5 7 7 7 7 10 8 8 7 10 16 18 17 18 20 23 23 27 31 30 30 28 27 26 25 24 23 21 19 18 19 20
11 10 2 5 6 7 2 2 6 7 6 4 7 8 5 6 5 10 10 12 3 4 13 15 16 17 21 23 23 28 31 31 30 28 27 27 25 25 23 22 15 13 20 17
Wind_Direction
245 235 239 250 243 245 262 275 285 288 289 316 218 238 251 257 198 211 209 216 179 183 173 155 166 164 169 154 165 168 164 164 159 159 157 152 138 127 112 93 87 66 47 52
254 242 247 250 259 270 273 270 262 274 275 279 276 261 248 255 249 207 208 212 184 171 170 164 158 162 147 155 166 172 169 172 174 167 153 142 135 121 125 120 85 73 50 48
252 253 242 240 249 251 260 267 273 273 284 271 273 271 263 241 257 259 212 208 189 172 172 160 163 160 155 163 173 168 170 180 168 147 139 138 130 132 138 122 96 64 55 46
262 260 259 256 256 254 252 249 278 258 267 268 256 271 257 261 243 231 239 198 181 171 168 160 164 163 167 169 176 176 173 169 152 150 154 155 164 147 120 121 111 81 74 55
236 249 226 239 252 256 254 236 255 282 293 301 268 260 280 279 278 266 249 188 179 170 165 163 168 167 176 176 170 176 168 166 165 165 158 145 116 121 129 125 118 115 89 70
253 265 267 268 280 251 274 271 262 270 273 261 261 248 270 265 269 266 273 157 151 154 161 158 165 169 178 175 171 169 163 156 160 150 150 147 136 140 138 143 131 115 102 86
244 245 246 244 243 253 245 238 212 233 226 242 255 241 236 257 48 75 126 137 145 151 161 160 165 169 177 169 167 162 169 155 158 153 147 139 138 138 130 136 122 124 118 94
260 251 214 217 225 229 209 223 214 219 236 244 242 237 261 285 72 74 115 178 165 158 162 166 164 166 178 165 162 166 169 162 162 155 143 138 135 130 133 122 124 114 116 99
262 249 255 213 206 213 240 216 246 264 263 268 258 266 252 256 168 154 162 168 188 167 162 161 161 165 176 163 166 171 166 165 165 152 145 143 138 137 130 123 122 117 114 112
25 298 263 253 313 258 231 279 214 98 241 237 251 259 257 21 44 32 47 8 289 141 157 156 158 165 174 161 162 167 166 166 160 154 150 145 142 137 134 133 125 123 121 113
283 255 256 305 248 261 265 249 277 275 192 235 268 248 233 115 33 75 204 208 199 176 167 159 160 166 158 152 154 160 166 164 164 161 154 148 142 140 138 131 128 128 124 116
41 258 269 266 270 263 271 295 264 240 240 230 242 258 330 327 294 128 306 184 260 177 160 156 153 155 142 151 151 160 173 164 165 162 153 148 147 144 140 134 132 134 128 118
359 38 277 258 243 250 306 345 353 322 261 252 255 264 311 282 66 304 315 88 236 268 127 147 156 146 145 153 152 161 160 161 166 162 155 149 150 145 137 134 137 137 128 124
53 297 256 268 301 308 280 286 294 298 279 309 284 302 301 299 319 325 59 225 179 186 147 139 159 138 150 156 151 148 157 163 167 164 156 155 159 150 142 148 150 142 141 151
174 218 242 266 273 276 280 283 282 263 246 248 280 281 283 285 275 270 285 233 185 187 173 177 177 151 156 153 157 159 163 168 165 161 156 156 156 154 156 154 151 149 142 139
204 243 242 250 261 266 271 271 271 272 269 264 259 263 263 271 281 271 260 256 213 201 199 183 180 165 164 157 165 162 170 179 171 167 159 156 157 159 158 153 149 147 141 134
219 238 239 251 262 270 266 242 253 262 267 271 274 275 277 273 265 264 256 246 244 203 204 187 184 183 172 163 164 167 173 179 177 171 166 163 160 158 156 155 153 154 153 145
258 248 251 268 283 272 266 269 264 269 272 272 274 270 277 287 285 284 274 246 241 230 219 188 182 185 174 157 162 170 172 177 180 175 167 167 166 162 162 163 162 164 162 162
240 248 253 250 254 272 282 274 278 297 288 312 339 345 346 332 338 328 352 330 332 103 45 162 177 174 164 164 166 170 174 174 177 176 170 170 170 166 167 169 168 169 166 170
226 230 225 235 242 259 258 284 9 349 277 27 7 349 352 331 349 311 335 339 309 97 122 133 149 157 165 165 169 173 169 170 178 174 173 169 172 169 169 169 171 167 167 158
336 274 242 245 249 260 291 323 316 240 332 353 313 359 5 348 359 321 349 334 324 97 137 148 162 170 165 165 168 168 167 173 175 170 167 168 172 171 169 168 166 164 156 155
275 257 235 220 236 263 9 323 305 3 312 333 309 14 336 335 337 347 308 253 269 192 149 144 153 156 158 158 166 170 170 167 164 167 166 168 166 164 167 166 162 158 153 154
284 1 322 277 276 150 136 278 282 25 359 332 341 353 340 335 331 318 348 263 295 120 134 148 157 155 156 162 169 170 167 163 166 167 167 166 168 166 167 163 164 160 157 158
319 37 300 292 303 124 184 210 246 73 9 354 301 293 312 327 331 335 134 296 141 135 155 162 150 148 153 164 171 167 160 165 164 162 165 165 165 164 169 168 174 172 166 172
283 322 307 301 314 28 94 76 14 6 181 295 317 291 300 321 351 339 295 214 188 167 161 150 154 157 161 166 171 164 162 165 163 162 165 166 167 167 170 167 179 184 184 184
273 276 258 266 316 294 267 359 337 321 318 226 259 283 316 275 112 90 325 4 11 159 137 144 156 163 166 170 173 160 165 168 164 165 169 170 168 169 170 154 141 172 183 182